#timestamp,LO_Frequency,Hit,StdDev 
1593680415.4,286047000.2,N
1593680435.2,286046996.9,N
1593680455.1,286046998.4,N
1593680456.0,286046998.4,N
1593680475.8,286047000.7,N
1593680495.6,286046999.3,N
1593680515.5,286046996.6,N
1593680535.3,286046995.6,N
1593680555.2,286046995.6,N
1593680575.9,286046993.4,Y
1593680595.8,286046995.0,P
1593680615.6,286046998.0,N
1593680635.4,286046997.4,N
1593680655.3,286046995.6,Y
1593680675.1,286046997.2,P
1593680695.8,286046998.8,P
1593680715.7,286046997.3,P
1593680735.5,286046995.1,Y
1593680755.4,286046997.7,P
1593680775.2,286046995.6,P
1593680795.0,286046994.6,P
1593680796.0,286046994.6,Y
1593680815.8,286046995.3,P
1593680835.6,286046997.6,P
1593680855.5,286047001.0,N
1593680875.3,286046998.5,N
1593680895.1,286047002.7,N
1593680915.9,286046997.4,N
1593680935.7,286046994.7,N
1593680955.6,286046991.0,Y
1593680975.4,286046994.2,P
1593680995.2,286046997.8,N
1593681015.1,286046997.0,N
1593681016.0,286046997.0,N
1593681035.8,286046997.9,N
1593681055.7,286046996.8,N
1593681075.5,286046999.8,N
1593681095.3,286046998.5,N
1593681115.2,286046992.0,Y
1593681135.0,286046991.4,P
1593681135.9,286046991.4,N
1593681155.7,286046990.4,P
1593681175.6,286046992.0,N
1593681195.4,286046992.1,Y
1593681215.3,286046999.8,P
1593681235.1,286047003.7,N
1593681255.8,286047002.1,N
1593681275.7,286046996.6,N
1593681295.5,286046996.8,N
1593681315.4,286046997.2,N
1593681335.2,286046997.3,N
1593681355.0,286046998.5,N
1593681355.9,286046998.5,N
1593681375.8,286046997.8,N
1593681395.6,286046996.3,N
1593681415.5,286046994.8,N
1593681435.3,286046992.9,N
1593681455.1,286046991.4,N
1593681475.9,286046992.1,N
1593681495.7,286046993.9,N
1593681515.5,286046996.3,N
1593681535.4,286046994.7,N
1593681555.2,286046988.8,Y
1593681575.1,286046992.1,P
1593681576.0,286046992.1,P
1593681595.8,286046992.3,P
1593681615.6,286046992.2,Y
1593681635.5,286046995.4,P
1593681655.3,286046997.7,N
1593681675.2,286046998.7,N
1593681695.9,286047001.0,N
1593681715.7,286047001.4,N
1593681735.6,286047001.5,N
1593681755.4,286047002.8,N
1593681775.2,286046997.6,N
1593681795.1,286046997.6,N
1593681796.0,286046997.6,N
1593681815.8,286046997.1,N
1593681835.6,286046995.9,N
1593681855.5,286046993.8,N
1593681875.3,286046990.3,Y
1593681895.2,286046990.3,P
1593681915.9,286046987.5,P
1593681935.7,286046989.7,N
1593681955.6,286046986.9,Y
1593681975.4,286047000.7,P
1593681995.3,286047004.7,N
1593682015.1,286047009.0,N
1593682016.0,286047009.0,N
1593682035.8,286047008.3,N
1593682055.7,286047007.1,N
1593682075.5,286047006.9,N
1593682095.3,286047005.5,N
1593682115.2,286047001.7,N
1593682135.0,286047004.1,N
1593682135.9,286047004.1,N
1593682155.8,286047002.1,N
1593682175.6,286047001.9,N
1593682195.4,286047003.8,N
1593682215.3,286047000.3,N
1593682235.1,286046998.3,N
1593682255.8,286046997.3,N
1593682275.7,286046998.8,N
1593682295.5,286047002.6,N
1593682315.3,286046998.3,N
1593682335.2,286046995.1,N
1593682355.0,286046993.7,N
1593682355.9,286046993.7,N
1593682375.8,286046992.6,N
1593682395.6,286046991.1,N
1593682415.4,286046992.1,N
1593682435.3,286046991.7,N
1593682455.1,286046992.0,N
1593682475.8,286046985.9,N
1593682495.7,286046984.9,N
1593682515.5,286046986.0,N
1593682535.4,286046988.1,N
1593682555.2,286046988.6,N
1593682575.0,286046986.0,N
1593682575.9,286046986.0,N
1593682595.8,286046984.7,N
1593682615.6,286046984.2,N
1593682635.4,286046985.2,N
1593682655.3,286046985.3,N
1593682675.1,286046986.0,N
1593682695.9,286046983.0,N
1593682715.7,286046982.3,N
1593682735.5,286046984.8,N
1593682755.4,286046982.8,N
1593682775.2,286046984.0,N
1593682795.0,286046985.4,N
1593682795.9,286046985.4,N
1593682815.8,286046985.3,N
1593682835.6,286046983.9,Y
1593682855.5,286046990.9,P
1593682875.3,286046992.9,P
1593682895.1,286046990.1,P
1593682915.9,286046990.9,Y
1593682935.7,286046998.0,P
1593682955.5,286046994.1,N
1593682975.4,286046995.5,N
1593682995.2,286046994.8,N
1593683015.1,286046992.2,Y
1593683016.0,286046992.2,P
1593683035.8,286046992.2,P
1593683055.7,286046997.9,N
1593683075.5,286046994.2,N
1593683095.3,286046995.2,N
1593683115.2,286046988.5,Y
1593683135.0,286046997.4,P
1593683135.9,286046997.4,N
1593683155.8,286046996.9,N
1593683175.6,286046990.1,Y
1593683195.4,286046990.3,P
1593683215.3,286046992.6,N
1593683235.1,286046990.8,P
1593683255.8,286046992.7,N
1593683275.7,286046995.2,N
1593683295.5,286046994.0,N
1593683315.4,286046997.2,N
1593683335.2,286046997.9,N
1593683355.0,286046994.9,N
1593683355.9,286046994.9,N
1593683375.8,286046998.0,N
1593683395.6,286046994.4,N
1593683415.5,286046992.5,Y
1593683435.3,286046995.4,P
1593683455.1,286046993.7,P
1593683475.9,286046994.0,P
1593683495.7,286046992.2,Y
1593683515.5,286046996.6,P
1593683535.4,286046995.3,P
1593683555.2,286047000.6,N
1593683575.1,286047004.4,N
1593683576.0,286047004.4,N
1593683595.8,286047000.7,N
1593683615.6,286046998.9,N
1593683635.5,286046995.1,N
1593683655.3,286046995.3,N
1593683675.1,286046997.2,N
1593683695.9,286046996.9,N
1593683715.7,286046998.7,N
1593683735.6,286046997.8,N
1593683755.4,286046999.2,N
1593683775.2,286046998.9,N
1593683795.1,286046997.4,N
1593683796.0,286046997.4,N
1593683815.8,286046993.7,N
1593683835.6,286046997.3,N
1593683855.5,286046998.2,N
1593683875.3,286046997.7,N
1593683895.2,286046992.2,N
1593683915.9,286046994.9,N
1593683935.7,286046997.3,N
1593683955.6,286046995.9,N
1593683975.4,286046993.7,N
1593683995.3,286046992.4,N
